Terug naar catalogus

METEOR 1-17 DEB

ActiefPO
NORAD 57545·DEBRIS·🇷🇺 Russia

Gelanceerd Apr 24, 1974 vanaf Plesetsk Cosmodrome

Loading…

Volgende Passages (komende 24 uur)

TLE

VersSource: Space-Track

Epoch: Sep 14, 2026, 12:45 UTC

1 57545U 74025L   26257.53162279  .00003413  00000-0  14779-2 0  9992
2 57545  81.2135 194.7919 0015195  21.6536 338.5281 14.24068777 13798

Volg METEOR 1-17 DEB in realtime met AllMySat

Download on the App Store